This demonstration page uses our WeatherBlox Daily Observations layout. Learn more.

Left ArrowRight Arrow

Hourly Observations for December 7, 2021

Temp ( °F °C ) Dew Point ( °F °C ) Humidity (%) Winds ( mph kmh ) Pressure ( in mb ) Visibility ( mi km ) Precip ( " mm )
12:56 am 00:56 Mostly Cloudy 21 -5.9 7 -13.7 54 54 SE 8 13 30.27 1025 10 16 0.00 0.00
1:56 am 01:56 Cloudy 23 -5.2 6 -14.3 49 49 SE 12 19 30.24 1024 10 16 0.00 0.00
2:56 am 02:56 Cloudy 23 -4.9 8 -13.3 52 52 SE 12 19 30.20 1023 10 16 0.00 0.00
3:56 am 03:56 Mostly Cloudy 24 -4.2 8 -13.1 50 50 SE 9 15 30.15 1021 10 16 0.00 0.00
4:56 am 04:56 Mostly Cloudy 26 -3.5 10 -12.4 51 51 SSE 12 19 30.13 1020 10 16 0.00 0.00
5:56 am 05:56 Mostly Cloudy 26 -3.1 10 -12.1 50 50 SSE 15 24 30.13 1020 10 16 0.00 0.00
6:56 am 06:56 Cloudy 27 -2.8 12 -11.3 52 52 SSE 14 22 30.12 1020 10 16 0.00 0.00
7:56 am 07:56 Cloudy 27 -2.6 12 -11.1 52 52 S 8 13 30.12 1020 10 16 0.00 0.00
8:56 am 08:56 Mostly Cloudy 28 -2.4 13 -10.5 54 54 S 9 15 30.12 1020 10 16 0.00 0.00
9:56 am 09:56 Cloudy 30 -1.1 14 -10 51 51 S 10 17 30.12 1020 9 14 0.00 0.00
11:02 am 11:02 Sunny 36 2 16 -9 44 44 SSE 10 17 30.08 1019 10 16 0.00 0.00
11:56 am 11:56 Sunny 39 4 16 -9 39 39 S 12 19 30.04 1017 10 16 0.00 0.00
12:57 pm 12:57 Mostly Sunny 41 5 18 -8 39 39 SSW 9 15 29.99 1016 10 16 0.00 0.00
1:56 pm 13:56 Sunny 42 5.5 16 -9.1 34 34 SW 17 28 29.97 1015 10 16 0.00 0.00
2:56 pm 14:56 Sunny 43 6 16 -8.7 34 34 WSW 13 20 29.96 1015 10 16 0.00 0.00
3:56 pm 15:56 Sunny 42 5.8 16 -8.9 34 34 W 10 17 29.95 1014 10 16 0.00 0.00
4:56 pm 16:56 Clear 40 4.4 16 -9 37 37 WSW 5 7 29.96 1015 10 16 0.00 0.00
5:56 pm 17:56 undefined 35 1.7 16 -9 45 45 NW 8 13 29.99 1016 10 16 0.00 0.00
6:56 pm 18:56 Clear 34 1 14 -10.2 43 43 NNW 7 11 30.00 1016 10 16 0.00 0.00
7:56 pm 19:56 Clear 30 -1 14 -9.9 51 51 N 7 11 30.02 1017 10 16 0.00 0.00
8:56 pm 20:56 Mostly Cloudy 28 -2.4 14 -9.8 57 57 NW 7 11 30.04 1017 10 16 0.00 0.00
9:56 pm 21:56 Cloudy 28 -2.5 15 -9.6 59 59 N 5 7 30.05 1018 10 16 0.00 0.00
10:56 pm 22:56 Mostly Cloudy 25 -3.7 15 -9.5 64 64 NE 3 6 30.06 1018 10 16 0.00 0.00
11:56 pm 23:56 Mostly Cloudy 24 -4.3 15 -9.5 67 67 Calm 30.06 1018 10 16 0.00 0.00

Powered by AerisWeather